Location: Brno
(49.2000°N, 16.6330°E)
Time: 19:11:25
(UTC+01:00)

Cosmos 332 Rocket - Visible Passes

Search period start: 30 October 2014 00:00
Search period end: 09 November 2014 00:00
Orbit: 684 x 707 km, 74.0° (Epoch: 29 October)

Date Brightness Start Highest point End Pass type
(mag) Time Alt. Az. Time Alt. Az. Time Alt. Az.
30 Oct 6.1 05:41:46 10° SSE 05:45:59 30° ESE 05:50:15 10° NE visible
30 Oct 7.2 17:37:16 10° WNW 17:39:46 14° W 17:42:16 10° SW visible
31 Oct 7.3 04:46:03 10° ESE 04:47:51 12° E 04:49:39 10° ENE visible
01 Nov 5.7 05:24:37 10° SSE 05:28:59 34° ESE 05:33:24 10° NE visible
01 Nov 7.3 17:20:45 10° WNW 17:22:43 12° W 17:24:41 10° WSW visible
02 Nov 7.1 04:28:25 10° ESE 04:30:48 14° E 04:33:10 10° ENE visible
02 Nov 3.9 06:05:39 10° SSW 06:10:32 86° WNW 06:15:30 10° NNE visible
03 Nov 5.4 05:07:29 10° S 05:11:59 38° ESE 05:16:31 10° NE visible
03 Nov 7.5 17:04:30 10° WNW 17:05:40 11° W 17:06:49 10° WSW visible
04 Nov 6.8 04:10:56 10° SE 04:13:44 15° E 04:16:33 10° ENE visible
04 Nov 3.8 05:48:41 10° SSW 05:53:35 77° WNW 05:58:32 10° NNE visible
05 Nov 5.1 04:50:22 10° S 04:54:58 43° ESE 04:59:37 10° NE visible
06 Nov 6.6 03:53:32 10° SE 03:56:41 17° E 03:59:51 10° NE visible
06 Nov 3.8 05:31:44 10° SSW 05:36:37 69° WNW 05:41:33 10° NNE visible
07 Nov 4.8 04:33:16 10° S 04:37:57 48° ESE 04:42:41 10° NNE visible
07 Nov 4.7 06:14:30 10° WSW 06:18:41 28° NW 06:22:55 10° N visible
08 Nov 6.3 03:36:11 10° SE 03:39:37 20° E 03:43:06 10° NE visible
08 Nov 3.8 05:14:47 10° SW 05:19:38 62° WNW 05:24:33 10° NNE visible
